Regional Weather Roundup
Issued by NWS

Home | Current Version | Previous Version | Graphics & Text | Print | Product List | Glossary On
Versions: 1 2 3 4 5 6 7 8 9 10 11 12 13 14 15 16 17 18 19 20 21 22 23 24 25 26 27 28 29 30 31 32 33 34 35 36 37 38 39 40 41 42 43 44 45 46 47 48 49 50
000
ASUS45 KCYS 172210
RWRWY

WYOMING REGIONAL WEATHER ROUNDUP
NATIONAL WEATHER SERVICE CHEYENNE WY
300 PM MST WED DEC 17 2014

NOTE:  "FAIR" INDICATES FEW OR NO CLOUDS BELOW 12,000 FEET
WITH NO SIGNIFICANT WEATHER AND/OR OBSTRUCTIONS TO VISIBILITY.

WYZ001-172300-
YELLOWSTONE NATIONAL PARK

CITY           SKY/WX    TMP DP  RH WIND       PRES   REMARKS
LK YELLOWSTONE   N/A     25  19  78 CALM      29.93R
W YELLOWSTONE  NOT AVBL

$$
WYZ002>013-054>058-071-098>099-172300-
NORTHERN WYOMING

CITY           SKY/WX    TMP DP  RH WIND       PRES   REMARKS
JACKSON        PTSUNNY   34  25  69 CALM      29.93F
CODY           FAIR      27  21  80 CALM      29.89R
GREYBULL       FAIR      25  18  74 CALM      29.94S
WORLAND        FAIR      17  12  80 SW5       29.93S WCI  10
SHERIDAN       FAIR      23  18  81 S3        29.93R
BUFFALO        FAIR      32  22  66 N5        29.91S WCI  27
GILLETTE       FAIR      30  19  63 W7        29.91S WCI  23
HULETT           N/A    N/A N/A N/A MISG        N/A
NEWCASTLE      CLOUDY    21  21 100 NW5       29.94S FOG     WCI  15

$$
WYZ014>020-022>026-101>103-172300-
CENTRAL WYOMING

CITY           SKY/WX    TMP DP  RH WIND       PRES   REMARKS
BIG PINEY      CLOUDY    34  19  54 E7        29.94S WCI  28
PINEDALE       FAIR      32  19  59 NW7       29.94S WCI  26
DUBOIS         FAIR      30  19  64 NW13      29.88S WCI  20
LANDER         FAIR      17  10  74 N3        29.91S
RIVERTON       FOG       18  14  84 NE5       29.93S VSB 1/4 WCI  11
CASPER         FAIR      32  22  66 SW10      29.91R WCI  24
DOUGLAS        FAIR      40  23  50 W9        29.90R WCI  34

$$
WYZ021-027>030-104>119-172300-
SOUTHERN WYOMING

CITY           SKY/WX    TMP DP  RH WIND       PRES   REMARKS
EVANSTON       CLOUDY    35  20  54 W8        29.94R WCI  29
KEMMERER       CLOUDY    34  19  55 W9        29.94R WCI  26
FORT BRIDGER   MOCLDY    38  21  50 NW9       29.96S WCI  31
ROCK SPRINGS   FAIR      27  18  69 CALM      29.95S
DIXON          CLOUDY    26  21  84 CALM      29.98S
RAWLINS        FAIR      31  21  66 SW10      29.93S WCI  22
SARATOGA       FAIR      30  23  74 CALM      29.94S
LARAMIE        FAIR      35  22  58 NW7       29.90R WCI  29
CHEYENNE       CLOUDY    43  19  38 NW8       29.89R
TORRINGTON     FAIR      25  20  81 E7        29.92R WCI  17
PINE BLUFFS    FAIR      41  28  60 S8        29.90S

$$


USA.gov is the U.S. government's official web portal to all federal, state and local government web resources and services.